[ hide orbit diagram ]
For accurate long-term ephemerides, please instead use our Horizons system.This orbit viewer was implemented using two-body methods, and hence should not be used for determining accurate long-term trajectories (over several years or decades) or planetary encounter circumstances.
Orbital Elements at Epoch 2459000.5 (2020-May-31.0) TDB
Reference: JPL 37 (heliocentric ecliptic J2000)
Element | Value | Uncertainty (1-sigma) | Units |
e | .1788168146746035 | 3.0414e-08 | |
a | 2.328221454731794 | 6.3703e-09 | au |
q | 1.911896310339583 | 7.3075e-08 | au |
i | 2.90722377562494 | 2.8072e-06 | deg |
node | 277.1003024112186 | 6.3741e-05 | deg |
peri | 36.72708504090684 | 6.4248e-05 | deg |
M | 284.0545418475363 | 8.8047e-06 | deg |
tp | 2459274.237415766638 (2021-Feb-28.73741577) | 3.2024e-05 | TDB |
period | 1297.582134248967 3.55 | 5.3255e-06 1.458e-08 | d yr |
n | .2774390849704214 | 1.1387e-09 | deg/d |
Q | 2.744546599124005 | 7.5095e-09 | au |
|
| | Orbit Determination Parameters
Additional Information
|
[ show covariance matrix ]
Physical Parameter Table
Parameter |
Symbol |
Value |
Units |
Sigma |
Reference |
Notes |
absolute magnitude |
H |
13.4 |
|
n/a |
MPO365268 |
|
diameter |
diameter |
11.931 |
km |
0.080 |
urn:nasa:pds:neowise_diameters_albedos::2.0[mainbelt] (http://adsabs.harvard.edu/abs/2011ApJ...741...68M) |
|
rotation period |
rot_per |
12. |
h |
n/a |
LCDB (Rev. 2020-October); Warner et al., 2009 |
lower-limit; Result based on fragmentary lightcurve(s), may be completely wrong. Published Reference List: [Behrend, R. (2010) Observatoire de Geneve web site, http://obswww.unige.ch/~behrend/page_cou.html] |
geometric albedo |
albedo |
0.049 |
|
0.002 |
urn:nasa:pds:neowise_diameters_albedos::2.0[mainbelt] (http://adsabs.harvard.edu/abs/2011ApJ...741...68M) |
|
|
2012 Guo Shou-Jing (1964 TE2) Discovered 1964-Oct-09 by Purple Mountain Observatory at Nanking |
Reference: DISCOVERY.DB | Last Updated: 2003-08-29 |
|
[ show close-approach data ]
Alternate Designations
1964 TE2 = 1971 SF1 = 1974 MS |
|
|